Tracking 27112 objects as of 27-Mar-2023
HD Live streaming from Space Station
objects crossing your sky now

STARLINK-3750

Track STARLINK-3750 now!
10-day predictions
STARLINK-3750 is classified as:


NORAD ID: 52311
Int'l Code: 2022-041BC
Perigee: 545.8 km
Apogee: 548.1 km
Inclination: 53.2 °
Period: 95.4 minutes
Semi major axis: 6917 km
RCS: Unknown
Launch date: April 21, 2022
Source: United States (US)
Launch site: AIR FORCE EASTERN TEST RANGE (AFETR)
Your satellite tracking list
Your tracking list is empty




NASA's NSSDC Master Catalog

Two Line Element Set (TLE):
1 52311U 22041BC  23085.51212385  .00008179  00000-0  53149-3 0  9996
2 52311  53.2166 253.7377 0001675  94.3446 265.7738 15.08831027 52943
Source of the keplerian elements: AFSPC